This demonstration page uses our WeatherBlox Daily Observations layout. Learn more.

39.51506, -84.39828

Hourly Observations for November 2, 2018

Temp ( °F °C ) Dew Point ( °F °C ) Humidity (%) Winds ( mph kmh ) Pressure ( in mb ) Visibility ( mi km ) Precip ( " mm )
12:15 am 00:15 Cloudy with Light Drizzle 47 8.5 47 8.3 99 99 SW 7 11 29.62 1003 2.5 4.02335 0.01 0.254
12:35 am 00:35 Cloudy with Light Drizzle 47 8.5 47 8.3 99 99 SW 7 11 29.62 1003 2 3.21868 0.01 0.254
12:55 am 00:55 Cloudy with Mist and Fog 47 8.4 47 8.1 98 98 SW 8 13 29.65 1004 2.5 4.02335 0.01 0.254
1:15 am 01:15 Cloudy with Drizzle 47 8.5 47 8.2 98 98 WSW 8 13 29.65 1004 2 3.21868 0 0
1:35 am 01:35 Cloudy with Drizzle 47 8.3 46 7.8 97 97 W 9 15 29.65 1004 1.75 2.816345 0.01 0.254
1:55 am 01:55 Cloudy with Light Drizzle 46 7.7 45 7 95 95 WNW 8 13 29.65 1004 3.5 5.63269 0.01 0.254
2:15 am 02:15 Cloudy with Mist and Fog 45 7.4 44 6.5 94 94 WNW 9 15 29.68 1005 5 8.0467 0 0
2:35 am 02:35 Cloudy with Light Drizzle 45 7 43 6.2 95 95 WNW 9 15 29.71 1006 3 4.82802 0 0
2:55 am 02:55 Cloudy with Mist and Fog 44 6.8 43 5.9 94 94 W 8 13 29.71 1006 5 8.0467 0 0
3:15 am 03:15 Cloudy 44 6.6 42 5.6 93 93 WNW 10 17 29.74 1007 10 16.0934 0 0
3:35 am 03:35 Cloudy 44 6.4 41 5 91 91 WNW 15 24 29.74 1007 7 11.26538 0 0
3:55 am 03:55 Cloudy 43 6 40 4.7 91 91 WNW 8 13 29.77 1008 10 16.0934 0 0
4:15 am 04:15 Cloudy with Mist and Fog 42 5.8 40 4.7 93 93 WNW 7 11 29.77 1008 7 11.26538 0 0
4:35 am 04:35 Cloudy with Mist and Fog 42 5.7 41 4.9 95 95 NW 7 11 29.77 1008 4 6.43736 0 0
4:55 am 04:55 Cloudy with Light Drizzle 42 5.7 40 4.6 93 93 NW 9 15 29.77 1008 7 11.26538 0 0
5:15 am 05:15 Cloudy with Light Drizzle 42 5.6 40 4.5 93 93 NW 7 11 29.77 1008 7 11.26538 0 0
5:35 am 05:35 Cloudy 42 5.6 40 4.2 91 91 WNW 9 15 29.8 1009 10 16.0934 0 0
5:55 am 05:55 Cloudy 42 5.5 39 4.1 91 91 WNW 6 9 29.8 1009 10 16.0934 0 0
6:15 am 06:15 Cloudy 42 5.5 39 4.1 91 91 WNW 3 6 29.8 1009 10 16.0934 0 0
6:35 am 06:35 Cloudy 42 5.5 39 4 90 90 WSW 3 6 29.83 1010 10 16.0934 0 0
6:55 am 06:55 Cloudy 42 5.5 39 4 90 90 W 9 15 29.83 1010 10 16.0934 0 0
7:15 am 07:15 Cloudy 41 5.2 38 3.4 88 88 NW 7 11 29.83 1010 10 16.0934 0 0
7:35 am 07:35 Cloudy 41 5.1 38 3.6 90 90 NW 3 6 29.83 1010 10 16.0934 0 0
7:55 am 07:55 Cloudy 41 5.1 38 3.5 90 90 NW 3 6 29.83 1010 10 16.0934 0 0
8:15 am 08:15 Cloudy 41 5.2 38 3.6 90 90 Calm 29.85 1011 10 16.0934 0 0
8:35 am 08:35 Cloudy 42 5.4 39 3.9 90 90 W 3 6 29.85 1011 10 16.0934 0 0
8:55 am 08:55 Cloudy 42 5.4 39 4 91 91 Calm 29.85 1011 10 16.0934 0 0
9:15 am 09:15 Cloudy 42 5.5 39 3.7 88 88 WNW 5 7 29.85 1011 10 16.0934 0 0
9:35 am 09:35 Cloudy 42 5.7 39 3.7 87 87 WNW 3 6 29.85 1011 10 16.0934 0 0
9:55 am 09:55 Cloudy 43 5.9 39 3.9 87 87 WNW 7 11 29.85 1011 10 16.0934 0 0
10:15 am 10:15 Cloudy 42 5.8 39 3.7 87 87 WNW 6 9 29.85 1011 10 16.0934 0 0
10:35 am 10:35 Cloudy 43 5.9 39 4 88 88 WNW 7 11 29.85 1011 10 16.0934 0 0
10:55 am 10:55 Cloudy 43 6 39 4 87 87 WNW 3 6 29.85 1011 10 16.0934 0 0
11:15 am 11:15 Cloudy 43 5.9 40 4.2 89 89 WNW 6 9 29.85 1011 10 16.0934 0 0
11:35 am 11:35 Cloudy 43 6.1 40 4.3 88 88 Calm 29.85 1011 10 16.0934 0 0
11:55 am 11:55 Cloudy 44 6.4 39 4.1 85 85 NW 7 11 29.85 1011 10 16.0934 0 0
12:15 pm 12:15 Cloudy 43 6.3 39 4.1 86 86 WNW 5 7 29.85 1011 7 11.26538 0 0
12:35 pm 12:35 Cloudy with Light Drizzle 43 6.2 40 4.7 90 90 Calm 29.85 1011 7 11.26538 0 0
12:55 pm 12:55 Cloudy with Mist and Fog 43 6.2 41 4.9 91 91 WSW 5 7 29.85 1011 4 6.43736 0 0
1:15 pm 13:15 Cloudy with Mist and Fog 44 6.5 41 5 90 90 W 5 7 29.85 1011 7 11.26538 0 0
1:35 pm 13:35 Cloudy with Light Drizzle 43 6.3 41 5 91 91 W 6 9 29.85 1011 5 8.0467 0 0
1:55 pm 13:55 Cloudy 44 6.5 41 5.1 91 91 W 6 9 29.85 1011 10 16.0934 0 0
2:15 pm 14:15 Cloudy 44 6.4 40 4.3 87 87 WNW 8 13 29.85 1011 10 16.0934 0 0
2:35 pm 14:35 Cloudy 44 6.8 40 4.5 85 85 WNW 6 9 29.85 1011 10 16.0934 0 0
2:55 pm 14:55 Cloudy 44 6.8 40 4.7 87 87 NW 5 7 29.85 1011 10 16.0934 0 0
3:15 pm 15:15 Cloudy with Light Rain 44 6.6 40 4.7 88 88 NW 9 15 29.85 1011 10 16.0934 0 0
3:35 pm 15:35 Cloudy 44 6.9 41 4.9 87 87 NW 8 13 29.85 1011 10 16.0934 0 0
3:55 pm 15:55 Cloudy 44 6.9 40 4.5 85 85 NW 3 6 29.85 1011 10 16.0934 0 0
4:15 pm 16:15 Cloudy 45 7 40 4.5 84 84 NW 6 9 29.85 1011 10 16.0934 0 0
4:35 pm 16:35 Cloudy 45 7.2 40 4.5 83 83 NW 6 9 29.85 1011 10 16.0934 0 0
4:55 pm 16:55 Cloudy 45 7.3 40 4.2 81 81 WNW 6 9 29.85 1011 10 16.0934 0 0
5:15 pm 17:15 Cloudy 45 7.3 40 4.2 81 81 WNW 5 7 29.85 1011 10 16.0934 0 0
5:35 pm 17:35 Cloudy 45 7.1 39 4 81 81 WNW 6 9 29.85 1011 10 16.0934 0 0
5:55 pm 17:55 Cloudy 45 7 38 3.6 79 79 WNW 3 6 29.85 1011 10 16.0934 0 0
6:15 pm 18:15 Cloudy with Light Rain 44 6.8 39 3.9 82 82 WNW 3 6 29.85 1011 10 16.0934 0 0
6:35 pm 18:35 Cloudy with Light Rain 44 6.6 39 4.1 84 84 W 5 7 29.85 1011 10 16.0934 0 0
6:55 pm 18:55 Cloudy with Light Rain 44 6.4 40 4.4 87 87 W 5 7 29.85 1011 10 16.0934 0 0
7:15 pm 19:15 Cloudy with Light Rain 43 6.2 40 4.5 89 89 WNW 3 6 29.85 1011 10 16.0934 0 0
7:35 pm 19:35 Cloudy with Light Rain 43 6.2 40 4.4 88 88 Calm 29.85 1011 10 16.0934 0 0
7:55 pm 19:55 Cloudy 43 6.3 40 4.7 90 90 Calm 29.88 1012 10 16.0934 0 0
8:15 pm 20:15 Cloudy with Light Rain 43 6.1 42 5.3 95 95 Calm 29.88 1012 10 16.0934 0 0
8:35 pm 20:35 Cloudy with Light Rain 43 6.1 41 4.8 91 91 Calm 29.88 1012 10 16.0934 0 0
8:55 pm 20:55 Cloudy with Light Rain 43 6 41 4.8 92 92 SW 3 6 29.88 1012 10 16.0934 0.01 0.254
9:15 pm 21:15 Cloudy with Light Rain 43 5.9 41 4.8 93 93 WSW 3 6 29.88 1012 10 16.0934 0 0
9:35 pm 21:35 Cloudy with Light Rain 43 5.9 41 4.8 93 93 WSW 3 6 29.88 1012 10 16.0934 0 0
9:55 pm 21:55 Cloudy 42 5.8 41 4.8 93 93 WSW 3 6 29.88 1012 10 16.0934 0 0
10:15 pm 22:15 Cloudy 42 5.7 40 4.6 93 93 WSW 3 6 29.88 1012 10 16.0934 0 0
10:35 pm 22:35 Cloudy 42 5.6 40 4.7 94 94 WSW 3 6 29.88 1012 10 16.0934 0 0
10:55 pm 22:55 Cloudy 42 5.5 40 4.6 94 94 WSW 5 7 29.88 1012 10 16.0934 0 0
11:15 pm 23:15 Cloudy 42 5.7 40 4.6 93 93 SW 3 6 29.88 1012 10 16.0934 0 0
11:35 pm 23:35 Cloudy 42 5.6 41 4.9 95 95 WSW 3 6 29.88 1012 10 16.0934 0 0
11:55 pm 23:55 Cloudy 42 5.5 41 4.8 95 95 W 3 6 29.88 1012 10 16.0934 0 0

Powered by AerisWeather